Somerville, NJ

5:39 AM EDT on May 24, 2017 (GMT -0400)
Somerset

Weather History for KSMQ - March, 2015

Change the Weather History Date:

Saturday, March 14, 2015

  Actual Average Record
Temperature  
Mean Temperature 40 °F -  
Max Temperature 46 °F 49 °F 82 °F (1990)
Min Temperature 35 °F 27 °F 15 °F (2014)
Degree Days  
Heating Degree Days 24    
Moisture  
Dew Point 38 °F    
Average Humidity 91    
Maximum Humidity 96    
Minimum Humidity 60    
Precipitation  
Precipitation 0.67 in - - ()
Sea Level Pressure  
Sea Level Pressure 29.93 in    
Wind  
Wind Speed 1 mph (NNW)    
Max Wind Speed 5 mph    
Max Gust Speed -    
Visibility 2 miles    
Events Fog , Rain    
Averages and records for this station are not official NWS values.
T = Trace of Precipitation, MM = Missing Value Source: NWS Daily Summary

Daily Weather History Graph

Daily Weather History Graph

Search for Another Location

Airport or City:

Trip Planner

Search our weather history database for the weather conditions in past years. The results will help you decide how hot, cold, wet, or windy it might be!

Date:

Astronomy

Mar. 14, 2015 Rise Set
Actual Time 7:12 AM EDT 7:04 PM EDT
Civil Twilight 6:45 AM EDT 7:31 PM EDT
Nautical Twilight 6:13 AM EDT 8:03 PM EDT
Astronomical Twilight 5:41 AM EDT 8:35 PM EDT
Moon 2:39 AM EDT (3/14) 12:49 PM EDT (3/14)
Length of Visible Light 12h 46m
Length of Day
11h 51m
Last Quarter, 40% of the Moon is Illuminated
Mar 14
Last Quarter
Mar 20
New
Mar 27
First Quarter
Apr 4
Full
Apr 11
Last Quarter

Hourly Weather History & Observations

Time (EDT) Temp. Windchill Dew Point Humidity Pressure Visibility Wind Dir Wind Speed Gust Speed Precip Events Conditions
12:53 AM 37.9 °F - 25.0 °F 60% 30.33 in 10.0 mi Calm Calm - N/A   Partly Cloudy
1:53 AM 36.0 °F - 25.0 °F 64% 30.31 in 10.0 mi Calm Calm - N/A   Mostly Cloudy
2:53 AM 35.1 °F - 30.9 °F 85% 30.29 in 9.0 mi Calm Calm - 0.02 in Rain Light Rain
3:11 AM 35.1 °F - 32.0 °F 89% 30.27 in 6.0 mi Calm Calm - 0.01 in Rain Light Rain
3:48 AM 35.6 °F - 33.8 °F 93% 30.25 in 4.0 mi Calm Calm - 0.04 in Rain Light Rain
3:53 AM 35.1 °F - 33.1 °F 92% 30.25 in 3.0 mi Calm Calm - 0.04 in Rain Light Rain
3:58 AM 36.0 °F - 33.1 °F 89% 30.24 in 1.8 mi Calm Calm - 0.00 in Rain Light Rain
4:17 AM 35.1 °F - 33.1 °F 92% 30.23 in 3.0 mi Calm Calm - 0.02 in Rain Light Rain
4:53 AM 35.1 °F - 33.1 °F 92% 30.21 in 3.0 mi Calm Calm - 0.06 in Rain Light Rain
5:15 AM 36.0 °F - 33.1 °F 89% 30.20 in 2.0 mi Calm Calm - 0.01 in Rain Light Rain
5:26 AM 35.1 °F - 33.1 °F 92% 30.19 in 3.0 mi Calm Calm - 0.02 in Rain Light Rain
5:37 AM 35.1 °F - 33.1 °F 92% 30.19 in 4.0 mi Calm Calm - 0.03 in Rain Light Rain
5:51 AM 35.6 °F - 33.8 °F 93% 30.18 in 2.5 mi Calm Calm - 0.05 in Rain Light Rain
5:53 AM 35.1 °F - 33.1 °F 92% 30.18 in 2.5 mi Calm Calm - 0.05 in Rain Light Rain
6:01 AM 35.1 °F - 33.1 °F 92% 30.17 in 3.0 mi Calm Calm - 0.02 in Rain Light Rain
6:24 AM 35.1 °F - 33.1 °F 92% 30.16 in 2.5 mi Calm Calm - 0.06 in Rain Rain
6:34 AM 35.1 °F 32.2 °F 33.1 °F 92% 30.16 in 2.0 mi West 3.5 mph - 0.07 in Rain Light Rain
6:44 AM 36.0 °F 33.3 °F 33.1 °F 89% 30.15 in 1.8 mi NW 3.5 mph - 0.09 in Rain Rain
6:53 AM 35.6 °F 32.8 °F 33.8 °F 93% 30.15 in 2.0 mi Variable 3.5 mph - N/A Rain Light Rain
7:01 AM 36.0 °F 33.3 °F 33.1 °F 89% 30.14 in 1.8 mi NNW 3.5 mph - 0.02 in Rain Rain
7:09 AM 35.1 °F 32.2 °F 33.1 °F 92% 30.14 in 1.8 mi NW 3.5 mph - 0.04 in Rain Rain
7:53 AM 36.0 °F 32.1 °F 34.0 °F 93% 30.14 in 1.8 mi NW 4.6 mph - 0.13 in Rain Light Rain
8:33 AM 37.0 °F 33.3 °F 34.0 °F 89% 30.11 in 1.5 mi NNW 4.6 mph - 0.06 in Rain Light Rain
8:53 AM 37.0 °F - 35.1 °F 93% 30.11 in 1.5 mi Calm Calm - 0.09 in Rain Light Rain
9:07 AM 37.0 °F 33.3 °F 35.1 °F 93% 30.09 in 1.8 mi NNW 4.6 mph - 0.01 in Rain Light Rain
9:49 AM 37.4 °F - 35.6 °F 93% 30.07 in 1.5 mi Calm Calm - 0.07 in Rain Light Rain
9:53 AM 37.9 °F 35.5 °F 36.0 °F 93% 30.07 in 1.5 mi NNW 3.5 mph - 0.07 in Rain Rain
10:53 AM 39.2 °F 37.0 °F 37.4 °F 93% 30.03 in 1.5 mi NW 3.5 mph - N/A Rain Light Rain
11:00 AM 39.9 °F 37.8 °F 37.9 °F 93% 30.02 in 1.5 mi NNW 3.5 mph - 0.01 in Rain Light Rain
11:46 AM 42.1 °F - 39.0 °F 89% 29.99 in 1.2 mi Calm Calm - 0.06 in Rain Light Rain
11:53 AM 42.1 °F - 39.9 °F 92% 29.99 in 1.0 mi Calm Calm - 0.07 in Rain Light Rain
12:19 PM 43.0 °F - 39.9 °F 89% 29.96 in 2.0 mi Calm Calm - 0.03 in Rain Light Rain
12:22 PM 43.0 °F - 39.9 °F 89% 29.95 in 1.8 mi Calm Calm - 0.03 in Rain Light Rain
12:33 PM 43.0 °F - 41.0 °F 93% 29.94 in 1.5 mi Calm Calm - 0.04 in Rain Light Rain
12:41 PM 44.1 °F - 41.0 °F 89% 29.93 in 1.5 mi Calm Calm - 0.05 in Rain Light Rain
12:53 PM 44.1 °F 42.5 °F 41.0 °F 89% 29.93 in 2.0 mi NE 3.5 mph - 0.05 in Rain Light Rain
1:04 PM 44.1 °F - 41.0 °F 89% 29.91 in 1.8 mi Calm Calm - 0.01 in Rain Light Rain
1:13 PM 44.1 °F - 41.0 °F 89% 29.91 in 2.0 mi North - - 0.01 in Rain Light Rain
1:25 PM 43.0 °F 41.3 °F 41.0 °F 93% 29.90 in 1.5 mi Variable 3.5 mph - 0.01 in   Overcast
1:45 PM 44.1 °F 42.5 °F 41.0 °F 89% 29.89 in 1.5 mi NNW 3.5 mph - 0.02 in Rain Light Rain
1:53 PM 44.1 °F 42.5 °F 41.0 °F 89% 29.88 in 1.5 mi NW 3.5 mph - 0.02 in Rain Light Rain
2:06 PM 44.1 °F - 42.1 °F 93% 29.86 in 2.0 mi Calm Calm - 0.00 in Rain Light Rain
2:13 PM 44.1 °F - 42.1 °F 93% 29.85 in 1.5 mi Calm Calm - 0.01 in Rain Light Rain
2:31 PM 44.1 °F - 42.1 °F 93% 29.84 in 2.0 mi Calm Calm - 0.01 in Rain Light Rain
2:53 PM 44.1 °F - 42.1 °F 93% 29.83 in 3.0 mi Calm Calm - 0.02 in Rain Light Rain
3:22 PM 45.0 °F - 42.1 °F 90% 29.80 in 4.0 mi Calm Calm - 0.00 in Rain Light Rain
3:35 PM 45.0 °F - 43.0 °F 93% 29.79 in 5.0 mi Calm Calm - 0.00 in   Overcast
3:53 PM 46.0 °F - 43.0 °F 89% 29.79 in 7.0 mi Calm Calm - 0.00 in Rain Light Rain
4:05 PM 46.0 °F - 43.0 °F 89% 29.79 in 1.8 mi Calm Calm - 0.01 in Rain Light Rain
4:13 PM 45.0 °F - 43.0 °F 93% 29.78 in 2.5 mi Calm Calm - 0.02 in Rain Light Rain
4:20 PM 46.0 °F - 43.0 °F 89% 29.78 in 6.0 mi Calm Calm - 0.02 in Rain Light Rain
4:53 PM 46.4 °F - 42.8 °F 87% 29.77 in 5.0 mi Calm Calm - N/A Rain Light Rain
5:29 PM 45.0 °F - 43.0 °F 93% 29.76 in 1.8 mi Calm Calm - 0.00 in Rain Light Rain
5:45 PM 45.0 °F - 43.0 °F 93% 29.76 in 2.5 mi Calm Calm - 0.01 in Rain Light Rain
5:48 PM 44.6 °F - 42.8 °F 93% 29.76 in 1.8 mi Calm Calm - 0.01 in Rain Light Rain
5:53 PM 45.0 °F - 43.0 °F 93% 29.76 in 0.8 mi Calm Calm - 0.01 in   Overcast
5:57 PM 45.0 °F - 43.0 °F 93% 29.75 in 0.2 mi Calm Calm - N/A Fog Fog
6:04 PM 44.1 °F 42.5 °F 42.1 °F 93% 29.74 in 0.2 mi ESE 3.5 mph - N/A Fog Fog
6:11 PM 43.0 °F - 41.0 °F 93% 29.75 in 0.2 mi Calm Calm - N/A Fog Fog
6:16 PM 44.1 °F - 42.1 °F 93% 29.75 in 0.5 mi Calm Calm - 0.00 in Fog , Rain Light Rain
6:23 PM 44.1 °F - 42.1 °F 93% 29.75 in 0.2 mi Calm Calm - 0.00 in Fog , Rain Light Rain
6:53 PM 43.0 °F - 41.0 °F 93% 29.75 in 0.2 mi Calm Calm - 0.00 in Fog Fog
7:01 PM 43.0 °F - 41.0 °F 93% 29.75 in 0.2 mi Calm Calm - 0.00 in Fog , Rain Light Rain
7:11 PM 43.0 °F - 39.9 °F 89% 29.74 in 0.5 mi Calm Calm - 0.00 in Fog , Rain Light Rain
7:27 PM 43.0 °F - 41.0 °F 93% 29.74 in 1.0 mi Calm Calm - 0.01 in Rain Light Rain
7:36 PM 41.0 °F - 39.9 °F 96% 29.73 in 0.5 mi Calm Calm - 0.01 in Fog , Rain Light Rain
7:53 PM 42.1 °F - 39.0 °F 89% 29.74 in 0.8 mi Calm Calm - 0.01 in Rain Light Rain
8:03 PM 42.1 °F - 41.0 °F 96% 29.73 in 1.2 mi Calm Calm - 0.00 in Rain Light Rain
8:27 PM 42.1 °F - 39.9 °F 92% 29.74 in 3.0 mi Calm Calm - 0.01 in Rain Light Rain
8:51 PM 42.8 °F - 39.2 °F 87% 29.74 in 1.8 mi Calm Calm - 0.01 in Rain Light Rain
8:53 PM 42.1 °F - 39.9 °F 92% 29.75 in 1.5 mi Calm Calm - 0.02 in Rain Light Rain
9:09 PM 41.0 °F - 39.0 °F 93% 29.74 in 0.5 mi Calm Calm - 0.00 in Fog , Rain Light Rain
9:42 PM 41.0 °F - 39.0 °F 93% 29.73 in 0.5 mi Calm Calm - 0.01 in Fog Fog
9:53 PM 42.1 °F - 39.9 °F 92% 29.74 in 0.5 mi Calm Calm - 0.01 in Fog Fog
10:11 PM 41.0 °F - 39.0 °F 93% 29.73 in 2.0 mi Calm Calm - N/A   Overcast
10:30 PM 39.0 °F - 37.9 °F 96% 29.73 in 1.2 mi Calm Calm - N/A   Overcast
10:40 PM 39.0 °F - 37.0 °F 93% 29.73 in 0.8 mi Calm Calm - N/A   Mostly Cloudy
10:53 PM 39.9 °F - 37.9 °F 93% 29.73 in 1.0 mi Calm Calm - N/A   Mostly Cloudy
11:02 PM 39.0 °F - 37.0 °F 93% 29.72 in 0.8 mi Calm Calm - N/A   Mostly Cloudy
11:33 PM 37.0 °F - 35.1 °F 93% 29.72 in 0.8 mi Calm Calm - N/A   Mist
11:40 PM 37.0 °F - 34.0 °F 89% 29.73 in 0.8 mi Calm Calm - N/A   Mist
11:53 PM 37.0 °F - 35.1 °F 93% 29.73 in 0.8 mi Calm Calm - N/A   Mist